GW1377 Weather Reports


time (UTC)temp
C
wind
direction
speed
KPH
gust
KPH
rain 1hr
cm
rain 24hr
cm
rain mn
cm
humidity
%
barometer
mb
20260504212539 13 225 14.5 27.4 0.00 0.08 0.08 63 1002.5
20260504212038 13 233 9.7 27.4 0.00 0.08 0.08 63 1002.5
20260504211549 13 250 8.0 24.1 0.00 0.08 0.08 64 1002.4
20260504211038 13 249 8.0 24.1 0.00 0.08 0.08 64 1002.6
20260504210538 13 227 12.9 24.1 0.00 0.08 0.08 64 1002.5
20260504210052 13 227 11.3 22.5 0.00 0.08 0.08 64 1002.4
20260504205541 13 269 12.9 25.7 0.00 0.08 0.08 64 1002.4
20260504205037 13 256 14.5 25.7 0.00 0.08 0.08 64 1002.6
20260504204551 13 264 12.9 29.0 0.00 0.08 0.08 65 1002.5
20260504204038 13 239 16.1 30.6 0.00 0.08 0.08 64 1002.5
20260504203539 13 226 16.1 30.6 0.00 0.08 0.08 64 1002.4
20260504203057 13 245 9.7 25.7 0.00 0.08 0.08 64 1002.4
20260504202539 13 263 14.5 27.4 0.00 0.08 0.08 66 1002.2
20260504202043 13 238 12.9 32.2 0.00 0.08 0.08 65 1002.1
20260504201552 13 258 16.1 32.2 0.00 0.08 0.08 66 1002.1
20260504201038 12 230 17.7 29.0 0.00 0.08 0.08 67 1002.3
20260504200538 13 231 16.1 29.0 0.00 0.08 0.08 66 1002.2
20260504200100 12 229 19.3 32.2 0.00 0.08 0.08 67 1002.2
20260504195538 12 238 19.3 38.6 0.00 0.08 0.08 67 1002.2
20260504195038 12 249 20.9 38.6 0.00 0.08 0.08 67 1002.2
20260504194553 12 246 12.9 38.6 0.00 0.08 0.08 68 1002.1
20260504194038 12 251 17.7 38.6 0.00 0.08 0.08 67 1002.1
20260504193538 12 224 19.3 37.0 0.00 0.08 0.08 67 1002.2
20260504193045 12 214 24.1 37.0 0.00 0.08 0.08 68 1002.1
20260504192538 12 240 19.3 37.0 0.00 0.08 0.08 70 1001.9
20260504192038 12 242 22.5 37.0 0.00 0.08 0.08 69 1002.0
20260504191605 12 239 14.5 32.2 0.00 0.08 0.08 70 1002.2
20260504191039 12 241 17.7 32.2 0.00 0.08 0.08 71 1002.1
20260504190539 12 269 20.9 37.0 0.00 0.08 0.08 70 1002.2
20260504190049 12 236 19.3 41.8 0.00 0.08 0.08 71 1002.2
20260504185536 12 225 27.4 41.8 0.00 0.08 0.08 71 1002.1
20260504185041 12 220 19.3 37.0 0.00 0.08 0.08 72 1002.3
20260504184549 12 268 17.7 37.0 0.00 0.08 0.08 72 1002.3
20260504184038 12 238 17.7 37.0 0.00 0.08 0.08 72 1002.2
20260504183540 12 250 19.3 37.0 0.00 0.08 0.08 71 1002.4
20260504183045 12 243 12.9 32.2 0.00 0.08 0.08 73 1002.3
20260504182541 11 243 17.7 35.4 0.00 0.08 0.08 72 1002.4
20260504182040 11 231 14.5 35.4 0.00 0.08 0.08 73 1002.4
20260504181556 11 245 20.9 41.8 0.00 0.08 0.08 72 1002.3
20260504181040 11 268 20.9 41.8 0.00 0.08 0.08 71 1002.3
20260504180540 11 227 22.5 38.6 0.00 0.08 0.08 73 1002.2
20260504180051 11 262 16.1 38.6 0.00 0.08 0.08 73 1002.1
20260504175541 11 212 20.9 38.6 0.00 0.08 0.08 73 1002.3
20260504175040 11 224 20.9 43.5 0.00 0.08 0.08 75 1002.3
20260504174556 11 214 20.9 43.5 0.00 0.08 0.08 76 1002.2
20260504174041 10 236 20.9 43.5 0.00 0.08 0.08 76 1002.2
20260504173541 10 247 19.3 40.2 0.00 0.08 0.08 76 1002.4
20260504173103 10 253 19.3 37.0 0.00 0.08 0.08 75 1002.5
20260504172543 10 240 19.3 32.2 0.00 0.08 0.08 76 1002.5
20260504172041 10 242 16.1 32.2 0.00 0.08 0.08 78 1002.6
20260504171551 10 222 17.7 32.2 0.00 0.08 0.08 77 1002.5
20260504171041 10 238 14.5 25.7 0.00 0.08 0.08 79 1002.5
20260504170541 10 240 9.7 24.1 0.00 0.08 0.08 80 1002.5
20260504151040 10 284 3.2 14.5 0.00 0.00 0.00 69 1002.1
20260504150540 10 226 0.0 9.7 0.00 0.00 0.00 68 1002.1
20260504141040 9 328 1.6 9.7 0.00 0.00 0.00 65 1002.7
20260504140540 10 64 1.6 9.7 0.00 0.00 0.00 64 1002.7
20260504130540 7 223 1.6 4.8 0.00 0.00 0.00 65 1003.5
20260504110540 5 252 6.4 12.9 0.00 0.00 0.00 62 1004.1
20260504100542 4 222 6.4 12.9 0.00 0.00 0.00 64 1004.1
20260504090105 3 229 4.8 8.0 0.00 0.00 0.00 65 1003.4
20260504081552 3 251 4.8 9.7 0.00 0.00 0.00 65 1003.6
20260504081038 3 250 4.8 9.7 0.00 0.00 0.00 65 1003.5
20260504080538 3 236 3.2 9.7 0.00 0.00 0.00 65 1003.6
20260504050539 4 199 8.0 16.1 0.00 0.00 0.00 63 1003.2
20260504045541 4 222 6.4 16.1 0.00 0.03 0.00 64 1003.2
20260504045038 3 226 8.0 22.5 0.00 0.03 0.00 64 1003.3
20260504044557 3 245 8.0 22.5 0.00 0.03 0.00 64 1003.3
20260504044038 3 222 3.2 16.1 0.00 0.03 0.00 65 1003.3
20260504043539 3 229 8.0 16.1 0.00 0.03 0.00 64 1003.4
20260504043052 3 256 6.4 16.1 0.00 0.03 0.00 64 1003.4
20260504042544 3 226 6.4 19.3 0.00 0.03 0.00 64 1003.4
20260504042039 3 252 6.4 19.3 0.00 0.03 0.00 65 1003.3
20260504041549 3 219 9.7 17.7 0.00 0.03 0.00 65 1003.2
20260504041038 3 250 8.0 17.7 0.00 0.03 0.00 65 1003.2
20260504040539 3 271 8.0 16.1 0.00 0.03 0.00 65 1003.2
20260504040109 3 249 8.0 17.7 0.00 0.03 0.00 65 1003.2
20260504035538 3 249 8.0 17.7 0.00 0.03 0.03 65 1003.1
20260504035038 3 245 6.4 19.3 0.00 0.03 0.03 65 1003.1
20260504034550 3 236 9.7 19.3 0.00 0.03 0.03 65 1003.1
20260504034036 3 226 8.0 19.3 0.00 0.03 0.03 65 1003.0
20260504033540 3 276 9.7 19.3 0.00 0.03 0.03 65 1003.0
20260504033053 3 222 8.0 19.3 0.00 0.03 0.03 65 1002.9
20260504032539 3 266 11.3 20.9 0.00 0.03 0.03 65 1002.9
20260504032038 3 280 6.4 20.9 0.00 0.03 0.03 64 1002.9
20260504031552 3 224 9.7 20.9 0.00 0.03 0.03 65 1002.9
20260504031039 3 233 6.4 17.7 0.00 0.03 0.03 65 1002.9
20260504030539 3 256 11.3 17.7 0.00 0.03 0.03 64 1002.9
20260504030047 3 270 9.7 17.7 0.00 0.03 0.03 65 1002.9
20260504025538 3 231 6.4 16.1 0.00 0.03 0.03 65 1003.0
20260504025038 3 226 9.7 16.1 0.00 0.03 0.03 65 1002.9
20260504024544 3 231 8.0 14.5 0.00 0.03 0.03 65 1003.0
20260504024039 3 226 6.4 14.5 0.00 0.03 0.03 65 1002.9
20260504023539 3 235 6.4 12.9 0.00 0.03 0.03 65 1003.0
20260504023050 3 226 6.4 12.9 0.00 0.03 0.03 65 1003.0
20260504022538 3 275 6.4 17.7 0.00 0.03 0.03 65 1003.0
20260504022037 3 233 8.0 17.7 0.00 0.03 0.03 65 1003.0
20260504021550 3 233 6.4 16.1 0.00 0.03 0.03 65 1003.0
20260504021042 3 264 9.7 20.9 0.00 0.03 0.03 64 1003.0
20260504020538 3 271 6.4 20.9 0.00 0.03 0.03 65 1003.0
20260504020051 3 252 8.0 14.5 0.00 0.03 0.03 64 1003.0
20260504015536 3 264 4.8 16.1 0.00 0.03 0.03 64 1003.1
20260504015039 4 239 6.4 16.1 0.00 0.03 0.03 64 1003.1
20260504014548 4 264 6.4 16.1 0.00 0.03 0.03 63 1003.1
20260504014039 4 222 6.4 16.1 0.00 0.03 0.03 63 1003.0
20260504013538 4 263 8.0 16.1 0.00 0.03 0.03 62 1003.0
20260504013058 4 227 4.8 9.7 0.00 0.03 0.03 62 1003.0
20260504012539 4 250 3.2 9.7 0.00 0.03 0.03 62 1003.1
20260504012040 4 236 4.8 9.7 0.00 0.03 0.03 62 1003.1
20260504011543 4 242 3.2 9.7 0.00 0.03 0.03 62 1003.0
20260504011038 4 271 3.2 14.5 0.00 0.03 0.03 62 1003.0
20260504010537 4 250 6.4 14.5 0.00 0.03 0.03 61 1002.9
20260504010058 4 264 6.4 14.5 0.00 0.03 0.03 61 1002.9
20260504005538 4 253 3.2 22.5 0.00 0.03 0.03 61 1002.9
20260504005036 5 262 8.0 22.5 0.00 0.03 0.03 60 1002.7
20260504004545 4 276 3.2 11.3 0.00 0.03 0.03 60 1002.7
20260504004039 5 248 4.8 16.1 0.00 0.03 0.03 60 1002.6
20260504003538 5 268 4.8 16.1 0.00 0.03 0.03 59 1002.6
20260504003049 5 267 9.7 17.7 0.00 0.03 0.03 58 1002.4
20260504002538 5 275 8.0 17.7 0.00 0.03 0.03 58 1002.3
20260504002038 5 256 4.8 17.7 0.00 0.03 0.03 58 1002.4
20260504001548 5 296 6.4 19.3 0.00 0.03 0.03 57 1002.4
20260504001038 5 276 9.7 19.3 0.00 0.03 0.03 57 1002.3
20260504000539 5 229 8.0 19.3 0.00 0.03 0.03 56 1002.1
20260504000051 5 263 9.7 16.1 0.00 0.03 0.03 56 1002.0
20260503235540 5 232 6.4 20.9 0.00 0.03 0.03 56 1002.0
20260503235041 5 240 12.9 25.7 0.00 0.03 0.03 56 1001.9
20260503234550 5 274 11.3 25.7 0.00 0.03 0.03 56 1001.9
20260503234040 6 283 14.5 25.7 0.00 0.03 0.03 55 1001.9
20260503233541 6 265 9.7 24.1 0.00 0.03 0.03 55 1001.8
20260503233048 6 248 8.0 27.4 0.00 0.03 0.03 55 1001.8
20260503232540 6 269 12.9 30.6 0.00 0.03 0.03 55 1001.8
20260503232040 6 271 17.7 30.6 0.00 0.03 0.03 53 1001.6
20260503231548 6 264 17.7 32.2 0.00 0.03 0.03 53 1001.5
20260503231041 6 267 16.1 32.2 0.00 0.03 0.03 52 1001.6
20260503230542 6 245 12.9 40.2 0.00 0.03 0.03 52 1001.5
20260503230058 6 274 19.3 40.2 0.00 0.03 0.03 52 1001.5
20260503225540 6 288 16.1 40.2 0.00 0.03 0.03 52 1001.5
20260503225040 6 269 8.0 24.1 0.00 0.03 0.03 54 1001.6
20260503224552 7 266 11.3 24.1 0.00 0.03 0.03 53 1001.5
20260503224041 7 275 12.9 30.6 0.00 0.03 0.03 53 1001.5
20260503223540 7 268 19.3 30.6 0.00 0.03 0.03 52 1001.5
20260503223050 7 225 12.9 29.0 0.00 0.03 0.03 54 1001.4
20260503222539 6 305 9.7 24.1 0.00 0.03 0.03 53 1001.3
20260503222040 6 266 16.1 35.4 0.00 0.03 0.03 53 1001.4
20260503221554 6 273 16.1 35.4 0.00 0.03 0.03 52 1001.4
20260503221040 6 334 16.1 29.0 0.00 0.03 0.03 52 1001.4
20260503220540 6 258 16.1 33.8 0.00 0.03 0.03 53 1001.3
20260503215540 6 276 24.1 37.0 0.00 0.03 0.03 51 1001.2
20260503215041 6 270 20.9 37.0 0.00 0.03 0.03 52 1001.3
20260503214548 6 275 20.9 37.0 0.00 0.03 0.03 52 1001.1
20260503214044 6 274 19.3 43.5 0.00 0.03 0.03 52 1001.1
20260503213541 6 212 27.4 43.5 0.00 0.03 0.03 51 1001.0
20260503213053 7 259 14.5 27.4 0.00 0.03 0.03 52 1001.1